Location: Champseau
(45.8333°N, 1.7667°E)
Time: 10:06:58
(UTC+00:00)

STRAND 1 - Pass Details

Date: 01 December 2021
Orbit: 768 x 780 km, 98.4° (Epoch: 22 January)

Event Time Altitude Azimuth Distance (km) Brightness Sun altitude
Rises 04:16:04 0° 105° (ESE) 3,254 ? -30.2°
Reaches altitude 10° 04:19:57 10° 76° (ENE) 2,329 ? -29.6°
Maximum altitude 04:21:45 12° 55° (NE) 2,200 ? -29.2°
Drops below altitude 10° 04:23:34 10° 34° (NE) 2,331 ? -28.9°
Sets 04:27:27 0° 4° (N) 3,261 ? -28.2°
